Regional Weather Roundup
Issued by NWS

Home | Current Version | Previous Version | Graphics & Text | Print | Product List | Glossary On
Versions: 1 2 3 4 5 6 7 8 9 10 11 12 13 14 15 16 17 18 19 20 21 22 23 24 25 26 27 28 29 30 31 32 33 34 35 36 37 38 39 40 41 42 43 44 45 46 47 48 49 50
000
ASUS43 KOAX 301602
RWRNE

WEATHER ROUNDUP FOR NEBRASKA
NATIONAL WEATHER SERVICE OMAHA NE
1100 AM CDT SAT AUG 30 2014

NOTES: SATELLITE DATA IS BEING USED TO AUGMENT CLOUD COVER ABOVE
       12000 FEET.
       "FAIR" INDICATES FEW OR NO CLOUDS BELOW 12,000 FEET WITH NO
       SIGNIFICANT WEATHER AND/OR OBSTRUCTIONS TO VISIBILITY.

  * THESE STATIONS DO NOT REPORT WEATHER SUCH AS RAIN...SNOW OR FOG.

NEZ001>004-019>022-054>056-301700-
NEBRASKA PANHANDLE

CITY           SKY/WX    TMP DP  RH WIND       PRES   REMARKS
SCOTTSBLUFF    SUNNY     74  54  49 SE9       29.96F
ALLIANCE       SUNNY     73  57  57 S18       29.97F
CHADRON        SUNNY     78  56  46 SW14      29.89F
KIMBALL        SUNNY     74  48  40 S12       30.01F
SIDNEY         SUNNY     73  55  53 S17       30.02F
$$

NEZ057>060-069>072-079>082-301700-
SOUTHWEST NEBRASKA

CITY           SKY/WX    TMP DP  RH WIND       PRES   REMARKS
NORTH PLATTE   SUNNY     70  59  68 SE9       30.01F
IMPERIAL       SUNNY     71  59  65 SE13      30.01F
LEXINGTON      SUNNY     71  63  76 SE8       30.01S
MCCOOK         SUNNY     73  60  63 E9        30.01F
OGALLALA       SUNNY     71  59  66 SE12      30.00F
$$

NEZ005>010-023>029-035>040-094-301700-
NORTH CENTRAL NEBRASKA

CITY           SKY/WX    TMP DP  RH WIND       PRES   REMARKS
VALENTINE      SUNNY     68  59  73 SE9       29.98F
AINSWORTH      SUNNY     66  60  79 SE5       29.99F
BROKEN BOW     SUNNY     70  61  73 SE5       30.01R
O`NEILL        SUNNY     67  61  79 CALM      29.99F
ORD            MOSUNNY   64  59  83 VRB3      29.99F
THEDFORD       SUNNY     71  60  68 SE10      30.01F
$$

NEZ041-046>049-061>064-073>077-083>087-301700-
SOUTH CENTRAL NEBRASKA

CITY           SKY/WX    TMP DP  RH WIND       PRES   REMARKS
GRAND ISLAND     N/A    N/A N/A N/A MISG      30.00S
AURORA         SUNNY     71  64  78 E5        29.99S
HASTINGS       SUNNY     73  61  65 E5        30.00S
HEBRON         SUNNY     75  62  65 CALM      29.99S
HOLDREGE       SUNNY     71  63  76 E7        30.01S
KEARNEY *      SUNNY     72  63  73 E5        30.01S
$$

NEZ011>018-030>034-042>045-301700-
NORTHEAST NEBRASKA

CITY           SKY/WX    TMP DP  RH WIND       PRES   REMARKS
NORFOLK        SUNNY     69  60  73 W5        29.98R
ALBION         SUNNY     67  59  74 NW3       29.99F
BLAIR          CLOUDY    67  65  94 W6        29.96S FOG
FREMONT        SUNNY     73  63  72 NW5       29.97R
TEKAMAH        MOSUNNY   72  64  76 N6        29.95S
WAYNE          PTSUNNY   67  61  79 NW7       29.97S
$$

NEZ050>053-065>068-078-088>093-301700-
SOUTHEAST NEBRASKA

CITY           SKY/WX    TMP DP  RH WIND       PRES   REMARKS
LINCOLN        SUNNY     75  65  70 CALM      29.98R
OMAHA EPPLEY   CLOUDY    68  65  90 N7        29.96R FOG
BEATRICE       SUNNY     74  68  79 CALM      29.97S
FALLS CITY     SUNNY     78  68  71 N7        29.94S
NEBRASKA CITY  SUNNY     74  70  86 NW6       29.96S
PLATTSMOUTH    CLOUDY    70  66  86 NW7       29.96S FOG
$$

NEZ044-045-051>053-067-301700-
OMAHA AREA

CITY           SKY/WX    TMP DP  RH WIND       PRES   REMARKS
OMAHA EPPLEY   CLOUDY    68  65  90 N7        29.96R FOG
BLAIR          CLOUDY    67  65  94 W6        29.96S FOG
FREMONT        SUNNY     73  63  72 NW5       29.97R
MILLARD        CLOUDY    68  65  91 W6        29.96R
OFFUTT AFB     CLOUDY    68  68 100 W5        29.96R
PLATTSMOUTH    CLOUDY    70  66  86 NW7       29.96S FOG
WAHOO          FAIR      73  63  72 NW6       29.97R
$$



USA.gov is the U.S. government's official web portal to all federal, state and local government web resources and services.